This demonstration page uses our WeatherBlox Daily Observations layout. Learn more.

Left ArrowRight Arrow

39.08367, -84.50855

Hourly Observations for December 1, 2017

Temp ( °F °C ) Dew Point ( °F °C ) Humidity (%) Winds ( mph kmh ) Pressure ( in mb ) Visibility ( mi km ) Precip ( " mm )
12:53 am 00:53 Mostly Cloudy with Freezing Fog 31 -0.6 31 -0.6 100 100 N N/A 30.24 1024 0 0 N/A
1:53 am 01:53 Mostly Cloudy with Freezing Fog 31 -0.6 31 -0.6 100 100 N N/A 30.24 1024 0 0 N/A
2:53 am 02:53 Mostly Cloudy with Freezing Fog 31 -0.6 31 -0.6 100 100 N N/A 30.25 1025 0 0 N/A
3:53 am 03:53 Mostly Cloudy with Freezing Fog 30 -1.1 30 -1.1 100 100 N N/A 30.26 1025 0 0 N/A
4:53 am 04:53 Mostly Cloudy with Freezing Fog 29 -1.7 29 -1.7 100 100 N N/A 30.26 1025 0 0 N/A
5:53 am 05:53 Mostly Cloudy with Freezing Fog 28 -2.2 28 -2.2 100 100 N N/A 30.26 1025 0 0 N/A
6:53 am 06:53 Mostly Cloudy with Freezing Fog 29 -1.7 29 -1.7 100 100 N N/A 30.29 1026 1 2 N/A
7:53 am 07:53 Mostly Cloudy with Freezing Fog 29 -1.7 29 -1.7 100 100 N N/A 30.32 1027 1 2 N/A
8:53 am 08:53 Cloudy with Freezing Fog 29 -1.7 29 -1.7 100 100 N N/A 30.32 1027 1 2 N/A
9:53 am 09:53 Cloudy with Fog 32 undefined 32 undefined 100 100 N N/A 30.32 1027 5 8 N/A
10:53 am 10:53 Mostly Cloudy with Fog 35 1.7 35 1.7 100 100 N N/A 30.33 1027 1 1 N/A
11:12 am 11:12 Mostly Cloudy with Mist and Fog 37 2.8 37 2.8 100 100 N N/A 30.30 1026 1 2 N/A
11:22 am 11:22 Partly Cloudy with Mist and Fog 38 3.3 38 3.3 100 100 N N/A 30.30 1026 3 5 N/A
11:53 am 11:53 Sunny 44 6.7 39 3.9 83 83 S 3 6 30.30 1026 10 16 N/A
12:53 pm 12:53 Sunny 49 9.4 39 3.9 69 69 SW 6 9 30.28 1025 10 16 N/A
1:53 pm 13:53 Sunny 51 10.6 36 2.2 56 56 SW 5 7 30.26 1025 10 16 N/A
2:53 pm 14:53 Sunny 52 11.1 32 undefined 47 47 S 5 7 30.25 1024 10 16 N/A
3:53 pm 15:53 Sunny 52 11.1 32 undefined 47 47 N N/A 30.24 1024 10 16 N/A
4:53 pm 16:53 Sunny 52 11.1 29 -1.7 41 41 N N/A 30.24 1024 10 16 N/A
5:53 pm 17:53 Clear 41 5 34 1.1 76 76 N N/A 30.25 1024 10 16 N/A
6:53 pm 18:53 Clear 37 2.8 34 1.1 89 89 N N/A 30.25 1025 10 16 N/A
7:53 pm 19:53 Clear 35 1.7 32 undefined 89 89 N N/A 30.26 1025 10 16 N/A
8:53 pm 20:53 Clear 33 0.6 32 undefined 96 96 N N/A 30.26 1025 10 16 N/A
9:53 pm 21:53 Clear 31 -0.6 30 -1.1 96 96 N N/A 30.26 1025 10 16 N/A
10:53 pm 22:53 Clear 31 -0.6 29 -1.7 92 92 N N/A 30.25 1025 8 13 N/A
11:09 pm 23:09 Clear with Mist and Fog 29 -1.7 29 -1.7 100 100 N N/A 30.27 1025 2 3 N/A
11:23 pm 23:23 Clear with Mist and Fog 29 -1.7 29 -1.7 100 100 N N/A 30.27 1025 4 6 N/A
11:53 pm 23:53 Clear with Mist and Fog 30 -1.1 29 -1.7 96 96 N N/A 30.25 1024 5 8 N/A

Powered by AerisWeather